This is the latest recevied weather packets stored in our database for station/object K7FRY. If no packets are shown the sender has not sent any weather packets the latest 10 day(s).
| Time | Temp. | Humidity | Pressure | Rain* | Wind** | Luminosity | Snow |
|---|---|---|---|---|---|---|---|
| 1777892579 | 17.78° C | 41% | 1013.8 hPa | 0 mm | - | 0 W/m² | - |
| 1777892274 | 17.78° C | 41% | 1014 hPa | 0 mm | - | 0 W/m² | - |
| 1777891971 | 17.78° C | 41% | 1013.7 hPa | 0 mm | - | 0 W/m² | - |
| 1777891669 | 18.33° C | 40% | 1013.7 hPa | 0 mm | - | 0 W/m² | - |
| 1777891365 | 18.89° C | 40% | 1013.7 hPa | 0 mm | - | 0 W/m² | - |
| 1777891060 | 18.89° C | 39% | 1013.9 hPa | 0 mm | - | 0 W/m² | - |
| 1777890755 | 18.89° C | 40% | 1013.6 hPa | 0 mm | - | 0 W/m² | - |
| 1777890451 | 19.44° C | 38% | 1014 hPa | 0 mm | - | 0 W/m² | - |
| 1777890147 | 20° C | 37% | 1014 hPa | 0 mm | - | 0 W/m² | - |
| 1777889844 | 19.44° C | 38% | 1013.8 hPa | 0 mm | - | 0 W/m² | - |
| 1777889542 | 18.33° C | 39% | 1013.7 hPa | 0 mm | - | 0 W/m² | - |
| 1777889239 | 18.89° C | 39% | 1013.6 hPa | 0 mm | - | 0 W/m² | - |
| 1777888937 | 19.44° C | 38% | 1013.7 hPa | 0 mm | - | 0 W/m² | - |
| 1777888634 | 18.89° C | 39% | 1013.5 hPa | 0 mm | - | 0 W/m² | - |
| 1777888329 | 18.89° C | 39% | 1013.4 hPa | 0 mm | - | 0 W/m² | - |
| 1777888026 | 18.33° C | 39% | 1013.4 hPa | 0 mm | - | 0 W/m² | - |
| 1777887723 | 18.33° C | 40% | 1013.1 hPa | 0 mm | - | 0 W/m² | - |
| 1777887420 | 18.89° C | 39% | 1013.3 hPa | 0 mm | - | 0 W/m² | - |
| 1777887115 | 18.89° C | 38% | 1013.2 hPa | 0 mm | - | 0 W/m² | - |
| 1777886812 | 18.89° C | 38% | 1013.2 hPa | 0 mm | - | 0 W/m² | - |
| 1777886508 | 18.33° C | 39% | 1013.1 hPa | 0 mm | - | 0 W/m² | - |
| 1777886206 | 17.78° C | 40% | 1012.9 hPa | 0 mm | - | 0 W/m² | - |
| 1777885903 | 18.33° C | 40% | 1013.3 hPa | 0 mm | - | 0 W/m² | - |
| 1777885602 | 18.33° C | 39% | 1012.9 hPa | 0 mm | - | 0 W/m² | - |
| 1777885300 | 18.33° C | 40% | 1013.4 hPa | 0 mm | - | 0 W/m² | - |
* Rain latest hour (hover to see other rain measurements)
** Current wind speed in m/s (hover to see current wind gust speed)